| time (UTC) | temp C | wind direction | speed KPH | gust KPH | rain 1hr cm | rain 24hr cm | rain mn cm | humidity % | barometer mb |
| 20260507141536 | 13 | 129 | 3.2 | 9.7 | 0.00 | 0.00 | 0.00 | 59 | 1016.2 |
| 20260507140033 | 13 | 0 | 1.6 | 11.3 | 0.00 | 0.00 | 0.00 | 61 | 1016.4 |
| 20260507134532 | 13 | 131 | 4.8 | 11.3 | 0.00 | 0.00 | 0.00 | 60 | 1016.6 |
| 20260507133033 | 13 | 132 | 3.2 | 11.3 | 0.00 | 0.00 | 0.00 | 58 | 1016.5 |
| 20260507131539 | 14 | 133 | 3.2 | 11.3 | 0.00 | 0.00 | 0.00 | 60 | 1016.5 |
| 20260507130033 | 14 | 123 | 4.8 | 12.9 | 0.00 | 0.00 | 0.00 | 59 | 1016.5 |
| 20260507124535 | 15 | 137 | 6.4 | 16.1 | 0.00 | 0.00 | 0.00 | 56 | 1016.5 |
| 20260507123033 | 15 | 113 | 6.4 | 14.5 | 0.00 | 0.00 | 0.00 | 59 | 1016.4 |
| 20260507121531 | 16 | 0 | 3.2 | 20.9 | 0.00 | 0.00 | 0.00 | 59 | 1016.4 |
| 20260507120032 | 15 | 149 | 3.2 | 17.7 | 0.00 | 0.00 | 0.00 | 62 | 1016.4 |
| 20260507114532 | 13 | 129 | 6.4 | 16.1 | 0.00 | 0.00 | 0.00 | 62 | 1016.8 |
| 20260507113036 | 15 | 118 | 8.0 | 16.1 | 0.00 | 0.00 | 0.00 | 59 | 1016.9 |
| 20260507111538 | 14 | 95 | 8.0 | 16.1 | 0.00 | 0.00 | 0.00 | 64 | 1016.9 |
| 20260507110033 | 14 | 151 | 8.0 | 16.1 | 0.00 | 0.00 | 0.00 | 65 | 1017.0 |
| 20260507104535 | 14 | 139 | 3.2 | 16.1 | 0.00 | 0.00 | 0.00 | 67 | 1017.0 |
| 20260507103030 | 13 | 114 | 4.8 | 17.7 | 0.00 | 0.00 | 0.00 | 66 | 1017.0 |
| 20260507101552 | 12 | 206 | 3.2 | 12.9 | 0.00 | 0.00 | 0.00 | 70 | 1017.1 |
| 20260507100035 | 12 | 106 | 3.2 | 14.5 | 0.00 | 0.00 | 0.00 | 67 | 1017.2 |
| 20260507094532 | 11 | 239 | 3.2 | 9.7 | 0.00 | 0.00 | 0.00 | 76 | 1017.3 |
| 20260507093034 | 11 | 133 | 0.0 | 6.4 | 0.00 | 0.00 | 0.00 | 74 | 1017.2 |
| 20260507091550 | 11 | 0 | 0.0 | 16.1 | 0.00 | 0.00 | 0.00 | 75 | 1017.2 |
| 20260507090033 | 11 | 131 | 4.8 | 16.1 | 0.00 | 0.00 | 0.00 | 76 | 1017.1 |
| 20260507084530 | 11 | 7 | 1.6 | 9.7 | 0.00 | 0.00 | 0.00 | 74 | 1017.1 |
| 20260507083032 | 11 | 167 | 4.8 | 16.1 | 0.00 | 0.00 | 0.00 | 74 | 1017.0 |
| 20260507081548 | 11 | 95 | 0.0 | 16.1 | 0.00 | 0.00 | 0.00 | 77 | 1017.0 |
| 20260507080033 | 11 | 124 | 3.2 | 14.5 | 0.00 | 0.00 | 0.00 | 76 | 1016.8 |
| 20260507074537 | 10 | 176 | 3.2 | 12.9 | 0.00 | 0.00 | 0.00 | 78 | 1017.0 |
| 20260507073036 | 10 | 120 | 4.8 | 14.5 | 0.00 | 0.00 | 0.00 | 81 | 1016.9 |
| 20260507071530 | 9 | 118 | 6.4 | 16.1 | 0.00 | 0.00 | 0.00 | 83 | 1016.8 |
| 20260507070036 | 8 | 116 | 6.4 | 11.3 | 0.00 | 0.00 | 0.00 | 86 | 1016.7 |
| 20260507064533 | 7 | 133 | 3.2 | 8.0 | 0.00 | 0.00 | 0.00 | 91 | 1016.7 |
| 20260507063031 | 6 | 133 | 4.8 | 11.3 | 0.00 | 0.00 | 0.00 | 95 | 1016.6 |
| 20260507061534 | 5 | 130 | 6.4 | 11.3 | 0.00 | 0.00 | 0.00 | 98 | 1016.4 |
| 20260507060034 | 3 | 127 | 1.6 | 3.2 | 0.00 | 0.00 | 0.00 | 97 | 1016.5 |
| 20260507054533 | 2 | 0 | 0.0 | 0.0 | 0.00 | 0.00 | 0.00 | 96 | 1016.3 |
| 20260507053036 | 1 | 0 | 0.0 | 0.0 | 0.00 | 0.00 | 0.00 | 95 | 1016.4 |
| 20260507051532 | 1 | 0 | 0.0 | 0.0 | 0.00 | 0.00 | 0.00 | 94 | 1016.4 |
| 20260507050033 | 1 | 0 | 0.0 | 0.0 | 0.00 | 0.00 | 0.00 | 94 | 1016.4 |
| 20260507044543 | 1 | 0 | 0.0 | 0.0 | 0.00 | 0.00 | 0.00 | 94 | 1016.3 |
| 20260507043037 | 1 | 0 | 0.0 | 0.0 | 0.00 | 0.00 | 0.00 | 94 | 1016.2 |
| 20260507041531 | 1 | 0 | 0.0 | 0.0 | 0.00 | 0.00 | 0.00 | 94 | 1016.3 |
| 20260507040034 | 2 | 0 | 0.0 | 0.0 | 0.00 | 0.00 | 0.00 | 94 | 1016.4 |
| 20260507034533 | 2 | 0 | 0.0 | 0.0 | 0.00 | 0.00 | 0.00 | 94 | 1016.5 |
| 20260507033032 | 2 | 0 | 0.0 | 0.0 | 0.00 | 0.00 | 0.00 | 93 | 1016.5 |
| 20260507031532 | 2 | 0 | 0.0 | 0.0 | 0.00 | 0.00 | 0.00 | 93 | 1016.5 |
| 20260507030030 | 3 | 0 | 0.0 | 0.0 | 0.00 | 0.00 | 0.00 | 93 | 1016.5 |
| 20260507024535 | 3 | 0 | 0.0 | 0.0 | 0.00 | 0.00 | 0.00 | 94 | 1016.5 |
| 20260507023034 | 3 | 0 | 0.0 | 0.0 | 0.00 | 0.00 | 0.00 | 94 | 1016.6 |
| 20260507021534 | 3 | 0 | 0.0 | 0.0 | 0.00 | 0.00 | 0.00 | 94 | 1016.5 |
| 20260507020034 | 3 | 0 | 0.0 | 0.0 | 0.00 | 0.00 | 0.00 | 94 | 1016.4 |
| 20260507014537 | 3 | 0 | 0.0 | 0.0 | 0.00 | 0.00 | 0.00 | 94 | 1016.4 |
| 20260507013035 | 3 | 0 | 0.0 | 1.6 | 0.00 | 0.00 | 0.00 | 94 | 1016.4 |
| 20260507011534 | 3 | 0 | 0.0 | 0.0 | 0.00 | 0.00 | 0.00 | 94 | 1016.5 |
| 20260507010032 | 3 | 0 | 0.0 | 1.6 | 0.00 | 0.00 | 0.00 | 94 | 1016.4 |
| 20260507004532 | 3 | 0 | 0.0 | 0.0 | 0.00 | 0.00 | 0.00 | 93 | 1016.5 |
| 20260507003031 | 3 | 0 | 0.0 | 1.6 | 0.00 | 0.00 | 0.00 | 93 | 1016.7 |
| 20260507001531 | 3 | 0 | 0.0 | 0.0 | 0.00 | 0.00 | 0.00 | 92 | 1016.6 |
| 20260507000032 | 3 | 0 | 0.0 | 0.0 | 0.00 | 0.00 | 0.00 | 91 | 1016.6 |
| 20260506234534 | 3 | 0 | 0.0 | 0.0 | 0.00 | 0.00 | 0.00 | 90 | 1016.5 |
| 20260506233032 | 3 | 0 | 0.0 | 0.0 | 0.00 | 0.00 | 0.00 | 89 | 1016.7 |
| 20260506231535 | 4 | 0 | 0.0 | 0.0 | 0.00 | 0.00 | 0.00 | 89 | 1016.7 |
| 20260506230030 | 5 | 0 | 0.0 | 0.0 | 0.00 | 0.00 | 0.00 | 88 | 1016.7 |
| 20260506224534 | 5 | 0 | 0.0 | 6.4 | 0.00 | 0.00 | 0.00 | 88 | 1016.6 |
| 20260506223034 | 5 | 134 | 4.8 | 11.3 | 0.00 | 0.00 | 0.00 | 88 | 1016.4 |
| 20260506221534 | 5 | 141 | 4.8 | 8.0 | 0.00 | 0.00 | 0.00 | 89 | 1016.5 |
| 20260506220036 | 6 | 0 | 0.0 | 4.8 | 0.00 | 0.00 | 0.00 | 89 | 1016.6 |
| 20260506214534 | 6 | 141 | 1.6 | 3.2 | 0.00 | 0.00 | 0.00 | 90 | 1016.6 |
| 20260506213032 | 6 | 137 | 1.6 | 4.8 | 0.00 | 0.00 | 0.00 | 89 | 1016.6 |
| 20260506211532 | 6 | 148 | 1.6 | 4.8 | 0.00 | 0.00 | 0.00 | 89 | 1016.6 |
| 20260506210032 | 6 | 141 | 1.6 | 4.8 | 0.00 | 0.00 | 0.00 | 88 | 1016.5 |
| 20260506204534 | 6 | 140 | 1.6 | 6.4 | 0.00 | 0.00 | 0.00 | 88 | 1016.2 |
| 20260506203034 | 6 | 0 | 1.6 | 11.3 | 0.00 | 0.00 | 0.00 | 88 | 1016.0 |
| 20260506201542 | 6 | 103 | 1.6 | 16.1 | 0.00 | 0.00 | 0.00 | 87 | 1015.9 |
| 20260506200033 | 6 | 147 | 1.6 | 8.0 | 0.00 | 0.00 | 0.00 | 87 | 1015.9 |
| 20260506194540 | 6 | 159 | 1.6 | 11.3 | 0.00 | 0.00 | 0.00 | 86 | 1016.0 |
| 20260506193037 | 6 | 111 | 1.6 | 9.7 | 0.00 | 0.00 | 0.00 | 85 | 1016.0 |
| 20260506191536 | 7 | 146 | 1.6 | 11.3 | 0.00 | 0.00 | 0.00 | 84 | 1015.9 |
| 20260506190032 | 7 | 149 | 1.6 | 8.0 | 0.00 | 0.00 | 0.00 | 84 | 1015.9 |
| 20260506184540 | 7 | 0 | 1.6 | 11.3 | 0.00 | 0.00 | 0.00 | 84 | 1015.7 |
| 20260506183030 | 7 | 136 | 4.8 | 12.9 | 0.00 | 0.00 | 0.00 | 83 | 1015.8 |
| 20260506181532 | 7 | 171 | 3.2 | 12.9 | 0.00 | 0.00 | 0.00 | 83 | 1015.7 |
| 20260506180034 | 7 | 133 | 3.2 | 9.7 | 0.00 | 0.00 | 0.00 | 83 | 1015.7 |
| 20260506174534 | 7 | 112 | 4.8 | 14.5 | 0.00 | 0.00 | 0.00 | 84 | 1015.6 |
| 20260506173040 | 7 | 158 | 1.6 | 11.3 | 0.00 | 0.00 | 0.00 | 85 | 1015.7 |
| 20260506171544 | 7 | 193 | 3.2 | 11.3 | 0.00 | 0.00 | 0.00 | 86 | 1015.7 |
| 20260506170032 | 7 | 0 | 0.0 | 11.3 | 0.00 | 0.00 | 0.00 | 86 | 1015.7 |
| 20260506164535 | 7 | 50 | 3.2 | 12.9 | 0.00 | 0.00 | 0.00 | 86 | 1015.6 |
| 20260506163046 | 7 | 160 | 1.6 | 14.5 | 0.00 | 0.00 | 0.00 | 88 | 1015.6 |
| 20260506161538 | 7 | 263 | 1.6 | 12.9 | 0.00 | 0.00 | 0.00 | 88 | 1015.6 |
| 20260506160034 | 7 | 0 | 1.6 | 11.3 | 0.00 | 0.00 | 0.00 | 88 | 1015.5 |
| 20260506154537 | 7 | 172 | 1.6 | 12.9 | 0.00 | 0.00 | 0.00 | 89 | 1015.7 |
| 20260506153038 | 8 | 62 | 0.0 | 9.7 | 0.00 | 0.00 | 0.00 | 87 | 1015.7 |
| 20260506151534 | 8 | 174 | 1.6 | 9.7 | 0.00 | 0.00 | 0.00 | 85 | 1015.6 |
| 20260506150032 | 8 | 195 | 1.6 | 11.3 | 0.00 | 0.00 | 0.00 | 83 | 1015.5 |
| 20260506144537 | 8 | 357 | 1.6 | 9.7 | 0.00 | 0.00 | 0.00 | 83 | 1015.5 |
| 20260506143032 | 9 | 337 | 1.6 | 11.3 | 0.00 | 0.00 | 0.00 | 82 | 1015.5 |